CW4167 Weather Reports


time (UTC)temp
C
wind
direction
speed
KPH
gust
KPH
rain 1hr
cm
rain 24hr
cm
rain mn
cm
humidity
%
barometer
mb
20260901022205 13 180 6.4 8.0 0.00 0.51 0.03 92 1006.5
20260901021706 13 178 4.8 8.0 0.00 0.51 0.03 92 1006.5
20260901020706 13 196 4.8 8.0 0.00 0.51 0.03 92 1006.4
20260901020206 13 173 4.8 4.8 0.00 0.51 0.03 92 1006.4
20260901015705 13 172 3.2 4.8 0.00 0.51 0.03 91 1006.4
20260901015206 13 195 6.4 4.8 0.00 0.51 0.03 91 1006.4
20260901014705 13 191 4.8 8.0 0.00 0.51 0.03 91 1006.3
20260901013207 13 182 1.6 4.8 0.00 0.51 0.03 91 1006.2
20260901012707 13 191 3.2 8.0 0.00 0.51 0.03 91 1006.2
20260901011705 13 178 4.8 9.7 0.00 0.51 0.03 91 1006.2
20260901011205 13 159 4.8 9.7 0.00 0.51 0.03 91 1006.2
20260901010206 13 140 8.0 9.7 0.00 0.51 0.03 92 1006.1
20260901004705 13 160 8.0 9.7 0.00 0.51 0.03 91 1006.1
20260901004206 13 149 4.8 9.7 0.00 0.51 0.03 91 1006.1
20260901000705 13 197 8.0 9.7 0.00 0.51 0.03 91 1006.0
20260831233707 13 173 8.0 9.7 0.03 0.51 0.03 91 1005.8
20260831232706 13 165 4.8 9.7 0.03 0.51 0.03 91 1005.9
20260831232205 13 185 4.8 8.0 0.03 0.51 0.03 91 1005.9
20260831230708 14 159 6.4 9.7 0.03 0.51 0.03 91 1005.9
20260831230206 14 180 4.8 8.0 0.03 0.51 0.03 91 1005.9
20260831225709 14 177 4.8 9.7 0.03 0.51 0.03 91 1005.9
20260831224705 14 190 8.0 9.7 0.00 0.48 0.00 91 1005.8
20260831222207 15 166 8.0 12.9 0.00 0.48 0.00 91 1006.0
20260831221207 15 180 4.8 8.0 0.00 0.48 0.00 91 1005.9
20260831215707 15 164 8.0 9.7 0.00 0.48 0.48 91 1005.9
20260831214707 15 176 4.8 8.0 0.00 0.48 0.48 90 1005.9
20260831213205 15 162 8.0 9.7 0.00 0.48 0.48 91 1005.8
20260831212705 15 156 9.7 11.3 0.00 0.48 0.48 91 1005.8
20260831212205 15 171 9.7 11.3 0.00 0.48 0.48 90 1005.8
20260831211205 15 177 8.0 12.9 0.03 0.48 0.48 90 1005.7
20260831210706 15 164 8.0 9.7 0.03 0.48 0.48 90 1005.6
20260831210208 15 154 9.7 9.7 0.03 0.48 0.48 90 1005.6
20260831203705 16 198 3.2 8.0 0.05 0.48 0.48 90 1005.4
20260831201207 16 155 8.0 9.7 0.03 0.46 0.46 90 1005.3
20260831195706 15 180 3.2 8.0 0.00 0.43 0.43 89 1005.3
20260831195205 15 162 0.0 0.0 0.00 0.43 0.43 89 1005.3
20260831194705 15 166 1.6 4.8 0.00 0.43 0.43 89 1005.2
20260831194207 15 166 3.2 8.0 0.00 0.43 0.43 89 1005.2
20260831192205 15 155 9.7 11.3 0.00 0.43 0.43 88 1005.2
20260831191206 15 170 9.7 12.9 0.00 0.43 0.43 87 1005.2
20260831190705 15 157 8.0 11.3 0.00 0.43 0.43 87 1005.2
20260831185705 15 171 4.8 12.9 0.00 0.43 0.43 87 1005.2
20260831185206 16 165 9.7 11.3 0.00 0.43 0.43 86 1005.0
20260831184705 16 172 3.2 8.0 0.00 0.43 0.43 86 1005.0
20260831183706 16 177 6.4 8.0 0.00 0.43 0.43 86 1004.9
20260831183206 16 191 3.2 4.8 0.00 0.43 0.43 85 1004.9
20260831182707 16 195 3.2 8.0 0.00 0.43 0.43 85 1004.9
20260831181705 16 209 1.6 4.8 0.00 0.43 0.43 84 1004.6
20260831181205 16 192 1.6 8.0 0.00 0.43 0.43 84 1004.6
20260831175204 17 207 1.6 4.8 0.00 0.43 0.43 84 1004.5
20260831173204 17 186 6.4 11.3 0.00 0.43 0.43 82 1004.5
20260831170706 18 237 9.7 16.1 0.00 0.43 0.43 84 1004.4
20260831170205 18 232 9.7 27.4 0.00 0.43 0.43 85 1004.4
20260831165205 18 215 8.0 11.3 0.00 0.43 0.43 88 1004.5
20260831164205 18 195 6.4 11.3 0.03 0.43 0.43 89 1004.6
20260831161705 17 147 8.0 11.3 0.03 0.43 0.43 88 1004.6
20260831155708 17 166 1.6 3.2 0.13 0.43 0.43 87 1004.2
20260831155207 17 165 4.8 8.0 0.13 0.43 0.43 86 1004.2
20260831154705 17 178 4.8 9.7 0.13 0.43 0.43 86 1004.3
20260831154206 17 170 4.8 8.0 0.10 0.41 0.41 85 1004.3
20260831153705 17 173 6.4 11.3 0.10 0.41 0.41 85 1004.4
20260831152707 18 188 9.7 11.3 0.10 0.41 0.41 83 1004.4
20260831151206 19 268 8.0 20.9 0.03 0.33 0.33 80 1004.5
20260831150707 19 296 8.0 11.3 0.00 0.30 0.30 78 1004.5
20260831145205 20 289 4.8 11.3 0.00 0.30 0.30 76 1004.4
20260831144707 20 206 8.0 12.9 0.00 0.30 0.30 76 1004.3
20260831144206 20 232 11.3 20.9 0.00 0.30 0.30 76 1004.4
20260831143204 20 198 9.7 16.1 0.00 0.30 0.30 75 1004.4
20260831142704 20 220 8.0 12.9 0.00 0.30 0.30 75 1004.5
20260831142205 20 230 4.8 11.3 0.00 0.30 0.30 75 1004.5
20260831141705 20 220 11.3 12.9 0.00 0.30 0.30 73 1004.4
20260831140706 21 211 9.7 24.1 0.00 0.30 0.30 73 1004.3
20260831133205 21 221 12.9 24.1 0.00 0.43 0.30 73 1004.4
20260831132206 21 213 14.5 25.7 0.00 0.48 0.30 72 1004.3
20260831131206 21 203 16.1 24.1 0.00 0.48 0.30 73 1004.4
20260831130705 21 274 16.1 25.7 0.00 0.48 0.30 75 1004.4
20260831125706 20 183 16.1 29.0 0.00 0.48 0.30 76 1004.3
20260831123205 20 195 12.9 32.2 0.00 0.48 0.30 76 1004.3
20260831122705 20 192 20.9 32.2 0.00 0.48 0.30 76 1004.3
20260831115207 20 180 14.5 25.7 0.00 0.48 0.30 82 1004.3
20260831114206 19 190 17.7 29.0 0.00 0.48 0.30 85 1004.3
20260831111707 19 155 19.3 29.0 0.03 0.53 0.30 87 1004.2
20260831111208 19 161 11.3 22.5 0.03 0.53 0.30 87 1004.3
20260831110708 18 165 16.1 29.0 0.03 0.53 0.30 87 1004.2
20260831105208 18 160 16.1 25.7 0.03 0.53 0.30 89 1004.2
20260831103706 18 165 19.3 29.0 0.05 0.51 0.28 91 1004.2
20260831101707 17 206 8.0 11.3 0.18 0.51 0.28 90 1004.6
20260831101206 17 169 11.3 24.1 0.18 0.51 0.28 89 1004.6
20260831095705 17 165 16.1 25.7 0.18 0.51 0.28 88 1004.8
20260831095206 17 173 9.7 20.9 0.18 0.53 0.28 88 1004.8
20260831094707 17 170 11.3 25.7 0.18 0.56 0.28 86 1004.8
20260831094206 18 174 12.9 29.0 0.18 0.56 0.28 86 1004.8
20260831091706 18 152 22.5 37.0 0.00 0.38 0.08 90 1004.9
20260831091207 18 150 25.7 35.4 0.00 0.38 0.08 91 1004.9
20260831090706 18 162 20.9 32.2 0.00 0.38 0.08 91 1004.9
20260831085706 18 150 12.9 20.9 0.00 0.38 0.08 92 1005.0
20260831084706 17 146 11.3 12.9 0.00 0.38 0.08 92 1005.1
20260831083706 17 163 11.3 16.1 0.00 0.38 0.08 92 1005.3
20260831083206 17 168 9.7 11.3 0.00 0.38 0.08 92 1005.3
20260831082706 17 178 11.3 16.1 0.00 0.38 0.08 92 1005.4
20260831082206 17 170 12.9 20.9 0.00 0.38 0.08 92 1005.4
20260831081706 17 153 14.5 20.9 0.00 0.38 0.08 93 1005.2
20260831080205 17 182 9.7 22.5 0.00 0.38 0.08 92 1005.3
20260831075705 17 149 14.5 22.5 0.03 0.38 0.08 93 1005.3
20260831074706 16 149 16.1 24.1 0.05 0.41 0.08 92 1005.3
20260831074206 16 132 9.7 14.5 0.05 0.46 0.08 93 1005.3
20260831073209 16 131 9.7 14.5 0.05 0.46 0.08 92 1005.3
20260831072706 16 126 12.9 20.9 0.05 0.46 0.08 92 1005.2
20260831070206 16 154 3.2 9.7 0.05 0.46 0.08 92 1005.8
20260831065706 16 162 4.8 11.3 0.03 0.43 0.05 93 1005.7
20260831062706 15 153 16.1 20.9 0.00 0.41 0.03 92 1005.7
20260831062207 15 152 11.3 16.1 0.00 0.41 0.03 93 1005.6
20260831061206 15 137 4.8 8.0 0.00 0.41 0.03 92 1005.5
20260831060706 15 138 9.7 12.9 0.00 0.41 0.03 92 1005.6
20260831060206 15 129 9.7 9.7 0.03 0.41 0.03 92 1005.6
20260831054206 15 133 9.7 11.3 0.03 0.41 0.03 92 1005.8
20260831053707 15 133 9.7 11.3 0.03 0.41 0.03 92 1005.8
20260831053206 14 131 8.0 11.3 0.03 0.41 0.03 92 1005.8
20260831052206 14 121 9.7 9.7 0.03 0.41 0.03 92 1005.8
20260831050705 14 123 8.0 11.3 0.03 0.41 0.03 92 1006.0
20260831045706 14 122 11.3 12.9 0.00 0.41 0.00 92 1006.0
20260831044705 13 133 8.0 9.7 0.00 0.43 0.00 92 1006.1
20260831043205 13 146 8.0 12.9 0.00 0.43 0.00 92 1006.3
20260831040705 13 159 9.7 11.3 0.00 0.43 0.00 92 1006.4
20260831035705 13 157 8.0 9.7 0.00 0.43 0.00 91 1006.3
20260831034706 13 165 8.0 9.7 0.00 0.43 0.00 91 1006.4
20260831034206 13 161 8.0 11.3 0.00 0.43 0.00 92 1006.4
20260831032706 13 154 8.0 9.7 0.00 0.43 0.00 91 1006.2
20260831032205 13 157 8.0 9.7 0.00 0.43 0.00 91 1006.2
20260831031206 13 163 8.0 11.3 0.00 0.43 0.00 91 1006.5
20260831030705 13 162 8.0 11.3 0.00 0.43 0.00 91 1006.5
20260831030205 13 153 8.0 11.3 0.00 0.43 0.00 91 1006.6
20260831025705 13 156 8.0 11.3 0.00 0.43 0.00 91 1006.6
20260831024706 13 154 8.0 9.7 0.00 0.43 0.00 91 1006.6
20260831023207 13 169 8.0 11.3 0.00 0.43 0.00 91 1006.8
20260831022707 13 162 8.0 12.9 0.00 0.43 0.00 91 1006.7